Weather History for KOJA - January, 2014

Change the Weather History Date:

Tuesday, January 28, 2014

  Actual Average (KJWG) Record (KJWG)
Temperature  
Mean Temperature 23 °F -  
Max Temperature 32 °F 49 °F 74 °F (1986)
Min Temperature 14 °F 26 °F 2 °F (1972)
Degree Days  
Heating Degree Days 42    
Moisture  
Dew Point 10 °F    
Average Humidity 63    
Maximum Humidity 93    
Minimum Humidity 36    
Precipitation  
Precipitation 0.00 in - - ()
Sea Level Pressure  
Sea Level Pressure 30.41 in    
Wind  
Wind Speed 9 mph (NNW)    
Max Wind Speed 15 mph    
Max Gust Speed 20 mph    
Visibility 9 miles    
Events Snow    
Averages and records for this station are not official NWS values.
T = Trace of Precipitation, MM = Missing Value Source: NWS Daily Summary

Daily Weather History Graph

Daily Weather History Graph

Search for Another Location

Airport or City:

Trip Planner

Search our weather history database for the weather conditions in past years. The results will help you decide how hot, cold, wet, or windy it might be!

Date:

Astronomy

Jan. 28, 2014 Rise Set
Actual Time 7:37 AM CST 5:58 PM CST
Civil Twilight 7:10 AM CST 6:25 PM CST
Nautical Twilight 6:39 AM CST 6:56 PM CST
Astronomical Twilight 6:09 AM CST 7:26 PM CST
Moon 5:18 AM CST (1/28) 3:51 PM CST (1/28)
Length of Visible Light 11h 15m
Length of Day
10h 21m
Waning Crescent, 7% of the Moon is Illuminated
Jan 28
Waning Crescent
Jan 30
New
Feb 6
First Quarter
Feb 14
Full
Feb 22
Last Quarter

Hourly Weather History & Observations

Time (CST) Temp. Windchill Dew Point Humidity Pressure Visibility Wind Dir Wind Speed Gust Speed Precip Events Conditions
12:15 AM 19.4 °F 5.5 °F -4.0 °F 36% 30.42 in 10.0 mi NNE 15.0 mph - N/A   Overcast
12:35 AM 19.4 °F 5.5 °F -4.0 °F 36% 30.42 in 10.0 mi NNE 15.0 mph - N/A   Overcast
12:55 AM 19.4 °F 6.6 °F -4.0 °F 36% 30.41 in 10.0 mi NNE 12.7 mph - N/A   Overcast
1:15 AM 19.4 °F 5.5 °F -4.0 °F 36% 30.41 in 10.0 mi NNE 15.0 mph 18.4 mph N/A   Overcast
1:35 AM 17.6 °F 4.3 °F -0.4 °F 45% 30.41 in 10.0 mi NNE 12.7 mph 19.6 mph N/A   Overcast
1:55 AM 17.6 °F 3.7 °F 3.2 °F 53% 30.42 in 10.0 mi NNE 13.8 mph - N/A   Overcast
2:15 AM 17.6 °F 3.7 °F 6.8 °F 63% 30.42 in 10.0 mi NNE 13.8 mph - N/A Snow Light Snow
2:35 AM 15.8 °F 1.4 °F 10.4 °F 79% 30.42 in 7.0 mi NNE 13.8 mph - N/A Snow Light Snow
2:55 AM 15.8 °F 2.7 °F 10.4 °F 79% 30.41 in 7.0 mi NNE 11.5 mph - N/A Snow Light Snow
3:15 AM 15.8 °F 2.7 °F 10.4 °F 79% 30.42 in 4.0 mi NNE 11.5 mph - N/A Snow Light Snow
3:35 AM 14.0 °F 0.5 °F 10.4 °F 86% 30.42 in 3.0 mi NE 11.5 mph - N/A Snow Light Snow
3:55 AM 15.8 °F 3.4 °F 12.2 °F 86% 30.42 in 3.0 mi NNE 10.4 mph - N/A Snow Light Snow
4:15 AM 14.0 °F 2.0 °F 12.2 °F 93% 30.42 in 4.0 mi NNE 9.2 mph - N/A Snow Light Snow
4:35 AM 14.0 °F 0.5 °F 12.2 °F 93% 30.41 in 7.0 mi NE 11.5 mph - N/A Snow Light Snow
4:55 AM 14.0 °F 2.0 °F 12.2 °F 93% 30.41 in 4.0 mi NE 9.2 mph - N/A Snow Light Snow
5:15 AM 14.0 °F 2.0 °F 12.2 °F 93% 30.41 in 3.0 mi NNE 9.2 mph - N/A Snow Light Snow
5:35 AM 14.0 °F 1.2 °F 10.4 °F 86% 30.41 in 4.0 mi NNE 10.4 mph - N/A Snow Light Snow
5:55 AM 14.0 °F 3.9 °F 12.2 °F 93% 30.42 in 10.0 mi NNE 6.9 mph - N/A   Overcast
6:15 AM 14.0 °F 2.0 °F 12.2 °F 93% 30.43 in 7.0 mi NNE 9.2 mph - N/A Snow Light Snow
6:35 AM 14.0 °F 2.0 °F 10.4 °F 86% 30.44 in 10.0 mi NE 9.2 mph - N/A   Overcast
6:55 AM 14.0 °F 5.1 °F 10.4 °F 86% 30.44 in 10.0 mi NNE 5.8 mph - N/A   Overcast
7:15 AM 14.0 °F 5.1 °F 10.4 °F 86% 30.44 in 10.0 mi NNE 5.8 mph - N/A   Mostly Cloudy
7:35 AM 14.0 °F 8.2 °F 10.4 °F 86% 30.47 in 10.0 mi North 3.5 mph - N/A   Overcast
7:55 AM 14.0 °F 6.5 °F 10.4 °F 86% 30.47 in 10.0 mi North 4.6 mph - N/A   Overcast
8:15 AM 14.0 °F 5.1 °F 10.4 °F 86% 30.47 in 10.0 mi North 5.8 mph - N/A   Overcast
8:55 AM 14.0 °F 5.1 °F 10.4 °F 86% 30.48 in 10.0 mi North 5.8 mph - N/A   Scattered Clouds
9:15 AM 17.6 °F 8.2 °F 10.4 °F 73% 30.49 in 10.0 mi North 6.9 mph - N/A   Scattered Clouds
9:35 AM 17.6 °F 8.2 °F 8.6 °F 68% 30.50 in 10.0 mi NNE 6.9 mph - N/A   Mostly Cloudy
9:55 AM 17.6 °F 9.3 °F 8.6 °F 68% 30.50 in 10.0 mi North 5.8 mph - N/A   Overcast
10:15 AM 19.4 °F 10.4 °F 6.8 °F 58% 30.51 in 10.0 mi NNE 6.9 mph - N/A   Scattered Clouds
10:35 AM 19.4 °F 9.5 °F 8.6 °F 63% 30.51 in 10.0 mi North 8.1 mph - N/A   Clear
10:55 AM 19.4 °F 14.3 °F 8.6 °F 63% 30.50 in 10.0 mi NNW 3.5 mph - N/A   Clear
11:15 AM 19.4 °F - 8.6 °F 63% 30.50 in 10.0 mi Calm Calm - N/A   Clear
11:35 AM 21.2 °F 13.6 °F 8.6 °F 58% 30.50 in 10.0 mi North 5.8 mph - N/A   Clear
11:55 AM 21.2 °F 14.9 °F 10.4 °F 63% 30.50 in 10.0 mi North 4.6 mph - N/A   Clear
12:15 PM 23.0 °F 18.4 °F 10.4 °F 59% 30.49 in 10.0 mi NNE 3.5 mph - N/A   Clear
12:35 PM 24.8 °F 19.1 °F 10.4 °F 54% 30.47 in 10.0 mi NW 4.6 mph - N/A   Clear
12:55 PM 24.8 °F - 10.4 °F 54% 30.45 in 10.0 mi Calm Calm - N/A   Clear
1:15 PM 26.6 °F 21.2 °F 8.6 °F 47% 30.44 in 10.0 mi North 4.6 mph - N/A   Clear
1:35 PM 26.6 °F 21.2 °F 8.6 °F 47% 30.43 in 10.0 mi North 4.6 mph - N/A   Clear
1:55 PM 28.4 °F 24.6 °F 8.6 °F 43% 30.41 in 10.0 mi North 3.5 mph - N/A   Clear
2:15 PM 28.4 °F - 10.4 °F 47% 30.40 in 10.0 mi Calm Calm - N/A   Clear
2:35 PM 28.4 °F - 12.2 °F 51% 30.40 in 10.0 mi Calm Calm - N/A   Clear
2:55 PM 28.4 °F 22.2 °F 12.2 °F 51% 30.39 in 10.0 mi NW 5.8 mph - N/A   Clear
3:15 PM 30.2 °F 26.7 °F 14.0 °F 51% 30.39 in 10.0 mi NW 3.5 mph - N/A   Clear
3:35 PM 30.2 °F 24.3 °F 14.0 °F 51% 30.38 in 10.0 mi WNW 5.8 mph - N/A   Clear
3:55 PM 30.2 °F 25.4 °F 14.0 °F 51% 30.37 in 10.0 mi West 4.6 mph - N/A   Clear
4:15 PM 32.0 °F 28.7 °F 14.0 °F 48% 30.36 in 10.0 mi WSW 3.5 mph - N/A   Clear
4:35 PM 32.0 °F 27.5 °F 14.0 °F 48% 30.36 in 10.0 mi West 4.6 mph - N/A   Clear
4:55 PM 30.2 °F 25.4 °F 14.0 °F 51% 30.35 in 10.0 mi SW 4.6 mph - N/A   Clear
5:15 PM 30.2 °F 24.3 °F 14.0 °F 51% 30.36 in 10.0 mi West 5.8 mph - N/A   Clear
5:35 PM 30.2 °F 24.3 °F 14.0 °F 51% 30.35 in 10.0 mi SW 5.8 mph - N/A   Clear
5:55 PM 30.2 °F 24.3 °F 12.2 °F 47% 30.35 in 10.0 mi SSW 5.8 mph - N/A   Clear
6:15 PM 28.4 °F 23.3 °F 12.2 °F 51% 30.35 in 10.0 mi SSW 4.6 mph - N/A   Clear
6:35 PM 28.4 °F 22.2 °F 12.2 °F 51% 30.35 in 10.0 mi SSW 5.8 mph - N/A   Clear
6:55 PM 26.6 °F 21.2 °F 12.2 °F 55% 30.35 in 10.0 mi SSW 4.6 mph - N/A   Clear
7:15 PM 24.8 °F 17.9 °F 12.2 °F 59% 30.35 in 10.0 mi SSW 5.8 mph - N/A   Clear
7:35 PM 23.0 °F 15.8 °F 12.2 °F 63% 30.36 in 10.0 mi SSW 5.8 mph - N/A   Clear
7:55 PM 23.0 °F 15.8 °F 10.4 °F 59% 30.36 in 10.0 mi SSW 5.8 mph - N/A   Unknown
8:15 PM 23.0 °F 15.8 °F 10.4 °F 59% 30.35 in 10.0 mi South 5.8 mph - N/A   Clear
8:35 PM 23.0 °F 18.4 °F 10.4 °F 59% 30.35 in 10.0 mi South 3.5 mph - N/A   Clear
8:55 PM 23.0 °F 18.4 °F 10.4 °F 59% 30.35 in 10.0 mi SSW 3.5 mph - N/A   Clear
9:15 PM 23.0 °F 17.0 °F 10.4 °F 59% 30.35 in 10.0 mi SSW 4.6 mph - N/A   Clear
9:35 PM 23.0 °F 14.7 °F 10.4 °F 59% 30.35 in 10.0 mi SSW 6.9 mph - N/A   Clear
9:55 PM 23.0 °F 13.9 °F 8.6 °F 54% 30.35 in 10.0 mi SSW 8.1 mph - N/A   Clear
10:15 PM 23.0 °F 13.9 °F 8.6 °F 54% 30.35 in 10.0 mi SSW 8.1 mph - N/A   Clear
10:35 PM 23.0 °F 14.7 °F 8.6 °F 54% 30.34 in 10.0 mi SSW 6.9 mph - N/A   Clear
10:55 PM 21.2 °F 11.7 °F 8.6 °F 58% 30.33 in 10.0 mi SW 8.1 mph - N/A   Clear
11:15 PM 23.0 °F 13.9 °F 10.4 °F 59% 30.33 in 10.0 mi SW 8.1 mph - N/A   Clear
11:35 PM 21.2 °F 12.6 °F 10.4 °F 63% 30.33 in 10.0 mi SW 6.9 mph - N/A   Clear
11:55 PM 21.2 °F 13.6 °F 10.4 °F 63% 30.33 in 10.0 mi SW 5.8 mph - N/A   Clear